Location: Newark
(45.8667°N, 9.7333°E)
Time: 12:35:21
(UTC+00:00)

AO-73 - Pass Details

Date: 22 February 2020
Orbit: 581 x 664 km, 97.6° (Epoch: 05 April)

Event Time Altitude Azimuth Distance (km) Brightness Sun altitude
Rises 04:38:18 0° 25° (NNE) 3,013 ? -17.2°
Reaches altitude 10° 04:40:58 10° 40° (NE) 2,093 ? -16.8°
Maximum altitude 04:44:36 23° 92° (E) 1,403 ? -16.1°
Drops below altitude 10° 04:48:11 10° 145° (SE) 2,062 ? -15.5°
Sets 04:50:47 0° 160° (SSE) 2,957 ? -15.1°
